Tracking 30701 objects as of 14-Jun-2025
HD Live streaming from Space Station
objects crossing your sky now

DELTA 1 DEB

Track DELTA 1 DEB now!
10-day predictions


NORAD ID: 40765
Int'l Code: 1976-077GJ
Perigee: 1,467.7 km
Apogee: 1,514.3 km
Inclination: 102.1 °
Period: 115.6 minutes
Semi major axis: 7861 km
RCS: Unknown
Launch date: July 29, 1976
Source: United States (US)
Launch site: AIR FORCE WESTERN TEST RANGE (AFWTR)

Note: This is SATELLITE DEBRIS
Your satellite tracking list
Your tracking list is empty




NASA's NSSDC Master Catalog

Two Line Element Set (TLE):
1 40765U 76077GJ  25165.41683817  .00000052  00000-0  68689-3 0  9993
2 40765 102.1429 158.7636 0029621  29.3289 330.9433 12.45391692525506
Source of the keplerian elements: AFSPC